Regional Weather Roundup
Issued by NWS

Home | Current Version | Previous Version | Text Only | Print | Product List | Glossary Off
Versions: 1 2 3 4 5 6 7 8 9 10 11 12 13 14 15 16 17 18 19 20 21 22 23 24 25 26 27 28 29 30 31 32 33 34 35 36 37 38 39 40 41 42 43 44 45 46 47 48 49 50

000
ASUS43 KMKX 160400
RWRWI

WISCONSIN REGIONAL WEATHER ROUNDUP
NATIONAL WEATHER SERVICE MILWAUKEE/SULLIVAN WI
1100 PM CDT TUE APR 15 2014

NOTE: "FAIR" INDICATES FEW OR NO CLOUDS BELOW 12,000 FEET WITH NO
SIGNIFICANT WEATHER AND/OR OBSTRUCTIONS TO VISIBILITY.

WIZ001-002-006>008-014>016-023>028-160500-
NORTHWEST WISCONSIN

CITY           SKY/WX    TMP DP  RH WIND       PRES   REMARKS
SUPERIOR ARPT  CLEAR     24  15  68 CALM      30.12R
ASHLAND        CLEAR     23   7  50 S5        30.14R WCI  17
HAYWARD        CLEAR     20   7  57 CALM      30.11R
SIREN          CLOUDY    24   9  53 CALM      30.10S
RICE LAKE      NOT AVBL
LADYSMITH      CLEAR     27  19  73 CALM      30.12R
EAU CLAIRE     NOT AVBL
MENOMONIE      MOCLDY    31  13  46 S6        30.12R WCI  25
NEW RICHMOND   MOCLDY    31  14  47 SE6       30.10S WCI  26
OSCEOLA        MOCLDY    30  17  57 E5        30.12F WCI  25
$$

WIZ003>005-009-010-017-018-160500-
NORTH CENTRAL WISCONSIN

CITY           SKY/WX    TMP DP  RH WIND       PRES   REMARKS
WOODRUFF       CLEAR     19   1  46 CALM      30.10R
RHINELANDER    CLEAR     15   2  56 CALM      30.10R
EAGLE RIVER    CLEAR     15   5  64 CALM      30.10R
LAND O LAKES   CLEAR      8   5  89 CALM      30.11R
PHILLIPS       CLEAR     21  11  64 CALM      30.09S
TOMAHAWK       CLEAR     16  11  80 CALM      30.10R
MEDFORD        CLEAR     25  15  65 SE3       30.10R
MERRILL        CLEAR     22  12  67 CALM      30.12R
$$

WIZ029-030-035-036-043>047-160500-
CENTRAL WISCONSIN

CITY           SKY/WX    TMP DP  RH WIND       PRES   REMARKS
WAUSAU         FAIR      23  11  60 S7        30.12R WCI  15
MOSINEE        CLEAR     23  14  68 SE5       30.14R WCI  17
MARSHFIELD     CLEAR     27  15  61 CALM      30.12R
STEVENS POINT  CLEAR     19  15  84 CALM      30.15S
WAUPACA        CLEAR     27  19  74 CALM      30.17S
WAUTOMA        NOT AVBL
WISC RAPIDS    PTCLDY    23  15  71 CALM      30.16R
CAMP DOUGLAS   NOT AVBL
$$

WIZ011>013-019>022-031-037>040-048>050-160500-
NORTHEAST WISCONSIN

CITY           SKY/WX    TMP DP  RH WIND       PRES   REMARKS
ANTIGO         CLEAR     16  10  76 S3        30.11S
STURGEON BAY   CLEAR     27  14  59 SW6       30.18S WCI  20
GREEN BAY      CLEAR     28  20  71 S3        30.18S
MANITOWOC      NOT AVBL
APPLETON       PTCLDY    27  18  69 CALM      30.18R
CLINTONVILLE   CLEAR     23  18  80 S3        30.16S
OSHKOSH        CLEAR     26  19  74 CALM      30.17S
$$

WIZ032>034-041-042-053>061-160500-
SOUTHWEST WISCONSIN

CITY           SKY/WX    TMP DP  RH WIND       PRES   REMARKS
LA CROSSE      CLOUDY    32  18  56 SE3       30.14S
SPARTA         CLOUDY    27  19  73 CALM      30.16R
VIROQUA        MOCLDY    31  18  58 S3        30.12S
BOSCOBEL       CLEAR     26  19  74 CALM      30.17R
PRAIRIE DU CHI CLEAR     30  21  68 CALM      30.16S
PLATTEVILLE    FAIR      31  19  60 CALM      30.16S
$$

WIZ056-057-062-063-064-067-068-160500-
SOUTH CENTRAL WISCONSIN

CITY           SKY/WX    TMP DP  RH WIND       PRES   REMARKS
BARABOO/DELLS  PTCLDY    28  19  68 E3        30.15R
LONE ROCK      NOT AVBL
WATERTOWN      CLEAR     26  20  79 E3        30.17R
MADISON        MOCLDY    27  17  66 CALM      30.17R
MIDDLETON      FAIR      27  22  81 CALM      30.17R
MONROE         MOCLDY    32  16  52 CALM      30.15R
JANESVILLE     CLEAR     30  25  80 SE3       30.17R
$$

WIZ051-052-058>065-066-070>072-160500-
SOUTHEAST WISCONSIN

CITY           SKY/WX    TMP DP  RH WIND       PRES   REMARKS
MILWAUKEE      CLEAR     28  20  71 CALM      30.20S
WAUKESHA       CLEAR     27  21  80 SE5       30.19S WCI  21
MILWAUKEE/TIMM CLEAR     30  19  64 CALM      30.21R
RACINE         CLEAR     30  23  75 S3        30.21S
BURLINGTON     CLEAR     26  21  81 CALM      30.18S
KENOSHA        CLEAR     27  21  78 S5        30.19S WCI  22
FOND DU LAC    CLEAR     26  21  81 SE3       30.18S
SHEBOYGAN      CLEAR     26  20  77 S5        30.20R WCI  20
WEST BEND      CLEAR     27  19  74 CALM      30.19R
JUNEAU         CLEAR     28  15  59 NE5       30.18S WCI  23
$$

LSZ147-162-160500-
LAKE SUPERIOR

STATION/POSITION TIME  TEMP    WIND        PRES    WAVE
                       AIR SEA DIR/SP/G            HT/PER
                 (UTC) (F)     (DEG/KT/KT) (MB)    (FT/S)
DEVILS ISLAND    0300   26     170/  7/  8 1021.1R
PORT WING        0340   24     140/  1/  2 1020.3R
SAXON HARBOR     0300           CALM  /  2 1020.3R
$$

LMZ867-665-643>646-160500-
LAKE MICHIGAN

STATION/POSITION TIME  TEMP    WIND        PRES    WAVE
                       AIR SEA DIR/SP/G            HT/PER
                 (UTC) (F)     (DEG/KT/KT) (MB)    (FT/S)
NORTHPORT PIER   0300   25      CALM  /  1 1022.0R
SISTER BAY       0323   22        CALM       N/A
KEWAUNEE LAKESHO 0300   29     250/  4/  5 1022.8R
SHEBOYGAN LAKESH 0300   31     210/  9/ 10 1023.8R
PORT WASHINGTON  0300   32     170/ 13/ 16 1023.4
MILWAUKEE LAKESH 0300   31     180/  9/ 10   N/A
KENOSHA   LAKESH 0300   33     170/ 15/ 17   N/A
$$

TC  - TEMPERATURE IN CELSIUS
VSB - VISIBILITY IN STATUTE MILES
WCI - WIND CHILL INDEX
HX  - HEAT INDEX




USA.gov is the U.S. government's official web portal to all federal, state and local government web resources and services.